Tracking 25648 objects as of 17-May-2022
HD Live streaming from Space Station
objects crossing your sky now

FLOCK 4S 8

Track FLOCK 4S 8 now!
10-day predictions
FLOCK 4S 8 is classified as:


NORAD ID: 47474
Int'l Code: 2021-006BP
Perigee: 524.2 km
Apogee: 537.0 km
Inclination: 97.4 °
Period: 95.1 minutes
Semi major axis: 6901 km
RCS: Unknown
Launch date: January 24, 2021
Source: United States (US)
Launch site: ()
aabbcc
Your satellite tracking list
Your tracking list is empty




NASA's NSSDC Master Catalog

Two Line Element Set (TLE):
1 47474U 21006BP  22136.58398353  .00007279  00000-0  40190-3 0  9995
2 47474  97.4406 195.6647 0009245  52.7316 307.4757 15.14189605 72417
Source of the keplerian elements: AFSPC